This is the latest recevied weather packets stored in our database for station/object W1RCP. If no packets are shown the sender has not sent any weather packets the latest 1 day(s).
| Time | Temp. | Humidity | Pressure | Rain* | Wind** | Luminosity | Snow |
|---|---|---|---|---|---|---|---|
| 1778031383 | 22.78° C | 60% | 1025.6 hPa | 0 mm | 0 m/s | 0 W/m² | - |
| 1778031079 | 22.78° C | 59% | 1025.6 hPa | 0 mm | 0.45 m/s, 204° | 0 W/m² | - |
| 1778030776 | 22.78° C | 58% | 1025.7 hPa | 0 mm | 0 m/s | 0 W/m² | - |
| 1778030472 | 22.78° C | 58% | 1025.7 hPa | 0 mm | 0.89 m/s, 204° | 0 W/m² | - |
| 1778030170 | 22.78° C | 58% | 1025.5 hPa | 0 mm | 0 m/s | 0 W/m² | - |
| 1778029866 | 23.33° C | 57% | 1025.3 hPa | 0 mm | 0 m/s | 0 W/m² | - |
| 1778029566 | 23.33° C | 57% | 1025.3 hPa | 0 mm | 0 m/s | 0 W/m² | - |
| 1778029262 | 23.89° C | 55% | 1025.5 hPa | 0 mm | 0 m/s | 0 W/m² | - |
| 1778028959 | 23.89° C | 54% | 1025.6 hPa | 0 mm | 0.45 m/s, 204° | 0 W/m² | - |
| 1778028655 | 24.44° C | 54% | 1025.5 hPa | 0 mm | 0.45 m/s, 204° | 0 W/m² | - |
| 1778028352 | 24.44° C | 53% | 1025.3 hPa | 0 mm | 0 m/s | 0 W/m² | - |
| 1778028049 | 24.44° C | 52% | 1025.3 hPa | 0 mm | 0.45 m/s, 204° | 0 W/m² | - |
| 1778027745 | 24.44° C | 52% | 1025.3 hPa | 0 mm | 0.45 m/s, 205° | 0 W/m² | - |
| 1778027442 | 25° C | 51% | 1025.3 hPa | 0 mm | 0.89 m/s, 205° | 0 W/m² | - |
| 1778027137 | 25° C | 50% | 1025.1 hPa | 0 mm | 0 m/s | 1 W/m² | - |
| 1778026833 | 25.56° C | 49% | 1025 hPa | 0 mm | 0.45 m/s, 206° | 2 W/m² | - |
| 1778026530 | 25.56° C | 48% | 1024.8 hPa | 0 mm | 0.45 m/s, 203° | 3 W/m² | - |
| 1778026227 | 25.56° C | 47% | 1024.8 hPa | 0 mm | 0.45 m/s, 202° | 5 W/m² | - |
| 1778025925 | 26.11° C | 47% | 1024.8 hPa | 0 mm | 0.45 m/s, 196° | 8 W/m² | - |
| 1778025622 | 26.11° C | 46% | 1024.9 hPa | 0 mm | 1.34 m/s, 203° | 10 W/m² | - |
| 1778025320 | 26.67° C | 45% | 1024.8 hPa | 0 mm | 0.89 m/s, 193° | 14 W/m² | - |
| 1778025016 | 26.67° C | 44% | 1024.7 hPa | 0 mm | 0.45 m/s, 205° | 20 W/m² | - |
| 1778024714 | 27.22° C | 42% | 1024.9 hPa | 0 mm | 0.89 m/s, 198° | 30 W/m² | - |
| 1778024410 | 27.78° C | 41% | 1024.7 hPa | 0 mm | 0.45 m/s, 200° | 40 W/m² | - |
| 1778024108 | 27.78° C | 41% | 1024.8 hPa | 0 mm | 0.45 m/s, 198° | 52 W/m² | - |
* Rain latest hour (hover to see other rain measurements)
** Current wind speed in m/s (hover to see current wind gust speed)